Location: Cubitt Town
(51.4833°N, 0.0000°E)
Time: 03:36:38
(UTC+00:00)

Meteor 1-27 Rocket - Pass Details

Date: 15 May 2026
Orbit: 830 x 907 km, 81.3° (Epoch: 8 June)

Event Time Altitude Azimuth Distance (km) Brightness Sun altitude
Exits shadow 23:25:46 31° 149° (SSE) 1,495 4.5 -19.1°
Maximum altitude 23:28:08 49° 94° (E) 1,126 4.2 -19.2°
Drops below altitude 10° 23:33:38 10° 22° (NNE) 2,523 7.1 -19.3°
Sets 23:36:07 0° 17° (NNE) 3,453 8.1 -19.3°
